Location: Newark
(23.1300°N, 73.6109°E)
Time: 04:44:57
(UTC+00:00)

Hubble Space Telescope - Pass Details

Date: 29 July 2021
Orbit: 535 x 539 km, 28.5° (Epoch: 19 September)

Event Time Altitude Azimuth Distance (km) Brightness Sun altitude
Rises 14:59:48 0° 287° (WNW) 2,669 6.0 -15.6°
Reaches altitude 10° 15:02:09 10° 295° (WNW) 1,777 4.8 -16.1°
Maximum altitude 15:06:03 41° 6° (N) 782 1.7 -16.9°
Enters shadow 15:08:18 21° 65° (ENE) 1,208 2.2 -17.3°
